Regional Weather Roundup
Issued by NWS

Home | Current Version | Previous Version | Text Only | Print | Product List | Glossary On
Versions: 1 2 3 4 5 6 7 8 9 10 11 12 13 14 15 16 17 18 19 20 21 22 23 24 25 26 27 28
000
ASUS45 KSLC 241210
RWRUT

UTAH REGIONAL WEATHER ROUNDUP
NATIONAL WEATHER SERVICE SALT LAKE CITY UT
500 AM MST WED JAN 24 2018

UTZ001>011-023>025-241300-

NORTHERN UTAH

CITY           SKY/WX    TMP DP  RH WIND       PRES   REMARKS
BRIGHAM CITY   PTCLDY    24  21  89 N3        30.28S
HILL AFB       CLEAR     26  16  67 E17       30.24F WCI  13
LOGAN          HAZE      17  11  77 S3        30.27F VSB 1/2
OGDEN          CLEAR     26  17  68 S8        30.24F WCI  18
SALT LAKE CITY PTCLDY    33  21  61 SE7       30.25F WCI  27
TOOELE VALLEY  PTCLDY    19  16  86 CALM      30.26F
WENDOVER       MOCLDY    21  17  84 NE5       30.26F WCI  15
HEBER CITY     FOG       10   9  92 CALM      30.29F VSB 1
WEST JORDAN    PTCLDY    31  22  68 S17       30.25F WCI  20

$$

UTZ011>015-024>027-241300-

CENTRAL/NORTHEAST UTAH

CITY           SKY/WX    TMP DP  RH WIND       PRES   REMARKS
PROVO AIRPORT  PTCLDY    19  16  88 E5        30.31S WCI  12
MOAB/CANYONLAN PTCLDY    22  19  89 SE3       30.39S
DELTA            N/A      9   7  92 NE7       30.29F VSB<1/4 WCI  -3
PRICE          PTCLDY    17  13  84 CALM      30.36R
ROOSEVELT      PTCLDY    12   9  85 CALM      30.42R
VERNAL         PTCLDY     8   4  83 W5        30.39S WCI   0

$$

UTZ013>016-019>022-027-241300-

SOUTHERN UTAH

CITY           SKY/WX    TMP DP  RH WIND       PRES   REMARKS
BRYCE CANYON   PTCLDY     8   5  87 SW5       30.34F WCI   0
CEDAR CITY     PTCLDY    16  13  88 E3        30.27F
MILFORD        MOCLDY    16  13  88 S10       30.28F WCI   4
ST GEORGE      SUNNY     33  26  75 CALM      30.33F
HANKSVILLE     MOCLDY    12   7  79 CALM      30.44R
BLANDING         N/A     20  13  74 NE5       30.46S WCI  13

$$

REGIONAL REPORTS     COLORADO/ARIZONA

CITY           SKY/WX    TMP DP  RH WIND       PRES   REMARKS
CRAIG, CO      CLEAR     -2  -6  83 W3        30.36R
GRAND JUNCTION CLEAR     17  13  84 SE6       30.41S WCI   9
RIFLE, CO      CLEAR     16  12  84 CALM      30.43S
MONTROSE, CO   CLEAR     15   8  73 SE3       30.44R
CORTEZ, CO     PTCLDY    10   6  84 CALM      30.41S
COLORADO CITY    N/A     28  19  69 SE5       30.34S WCI  23
PAGE, AZ       PTCLDY    27  17  66 CALM      30.38R
GRAND CANYON   PTCLDY    21  11  65 NE5       30.31F WCI  15
KINGMAN, AZ    CLEAR    N/A N/A N/A SE7       30.25F
FLAGSTAFF, AZ  PTCLDY     9   5  84 CALM      30.34S

$$

REGIONAL REPORTS    NEVADA/IDAHO/WYOMING

CITY           SKY/WX    TMP DP  RH WIND       PRES   REMARKS
LAS VEGAS, NV  PTCLDY    41  28  60 SW3       30.25F
ELY, NY        MOCLDY    18  10  71 S9        30.24F WCI   7
ELKO, NV       CLOUDY    28  23  81 E5        30.16S WCI  23
POCATELLO, ID  PTCLDY    27  22  81 N10       30.17F WCI  17
BURLEY, ID     CLEAR     38  21  50 S21G30    30.11F WCI  28
FORT BRIDGER,    N/A     20  11  68 S5        30.26S WCI  13
EVANSTON, WY   PTCLDY    19  11  70 SW8       30.22F WCI   9
ROCK SPRINGS,  PTCLDY    12   6  77 CALM      30.24S

$$




USA.gov is the U.S. government's official web portal to all federal, state and local government web resources and services.